Ontario, OR

3:02 PM MDT on September 20, 2017 (GMT -0600)
Ontario Municipal

Weather History for KONO - July, 2013

Change the Weather History Date:

Wednesday, July 24, 2013

  Actual Average Record
Temperature  
Mean Temperature 80 °F 78 °F  
Max Temperature 96 °F 96 °F 106 °F (1956)
Min Temperature 64 °F 59 °F 45 °F (1970)
Degree Days  
Heating Degree Days 0 0  
Month to date heating degree days 0 0  
Since 1 June heating degree days 39 52  
Since 1 July heating degree days 0 0  
Cooling Degree Days 15 13  
Month to date cooling degree days 397 260  
Year to date cooling degree days 648 435  
Since 1 June cooling degree days 601 399  
Growing Degree Days 30 (Base 50)    
Moisture  
Dew Point 51 °F    
Average Humidity 42    
Maximum Humidity 63    
Minimum Humidity 20    
Precipitation  
Precipitation 0.00 in 0.00 in 0.12 in (1977)
Month to date precipitation 0.00 0.26  
Year to date precipitation 2.61 6.02  
Sea Level Pressure  
Sea Level Pressure 29.88 in    
Wind  
Wind Speed 3 mph (SSE)    
Max Wind Speed 13 mph    
Max Gust Speed 21 mph    
Visibility 10 miles    
Events      
T = Trace of Precipitation, MM = Missing Value Source: NWS Daily Summary

Daily Weather History Graph

Daily Weather History Graph

Search for Another Location

Airport or City:

Trip Planner

Search our weather history database for the weather conditions in past years. The results will help you decide how hot, cold, wet, or windy it might be!

Date:

Astronomy

Jul. 24, 2013 Rise Set
Actual Time 6:28 AM MDT 9:20 PM MDT
Civil Twilight 5:54 AM MDT 9:54 PM MDT
Nautical Twilight 5:10 AM MDT 10:37 PM MDT
Astronomical Twilight 4:20 AM MDT 11:27 PM MDT
Moon 10:20 PM MDT (7/24) 9:00 AM MDT (7/24)
Length of Visible Light 16h 00m
Length of Day
14h 52m
Waning Gibbous, 94% of the Moon is Illuminated
Jul 24
Waning Gibbous
Jul 29
Last Quarter
Aug 6
New
Aug 14
First Quarter
Aug 20
Full

Hourly Weather History & Observations

Time (MDT) Temp. Heat Index Dew Point Humidity Pressure Visibility Wind Dir Wind Speed Gust Speed Precip Events Conditions
12:53 AM 73.0 °F - 46.9 °F 39% 29.86 in 10.0 mi West 3.5 mph - N/A   Clear
1:53 AM 66.0 °F - 54.0 °F 65% 29.87 in 10.0 mi Calm Calm - N/A   Clear
2:53 AM 66.0 °F - 53.1 °F 63% 29.86 in 10.0 mi West 3.5 mph - N/A   Clear
3:53 AM 69.1 °F - 51.1 °F 53% 29.86 in 10.0 mi Calm Calm - N/A   Clear
4:53 AM 68.0 °F - 48.9 °F 50% 29.87 in 10.0 mi WNW 4.6 mph - N/A   Clear
5:53 AM 70.0 °F - 46.0 °F 42% 29.88 in 10.0 mi West 4.6 mph - N/A   Clear
6:53 AM 75.0 °F - 34.0 °F 22% 29.88 in 10.0 mi WNW 5.8 mph - N/A   Clear
7:53 AM 70.0 °F - 52.0 °F 53% 29.90 in 10.0 mi East 4.6 mph - N/A   Clear
8:53 AM 73.0 °F - 53.1 °F 49% 29.92 in 10.0 mi SSE 3.5 mph - N/A   Clear
9:53 AM 78.1 °F - 55.9 °F 46% 29.93 in 10.0 mi ESE 3.5 mph - N/A   Clear
10:53 AM 82.0 °F 81.2 °F 53.1 °F 37% 29.92 in 9.0 mi SSE 3.5 mph - N/A   Clear
11:53 AM 87.1 °F - 48.0 °F 26% 29.91 in 10.0 mi SSE 4.6 mph - N/A   Clear
12:53 PM 84.0 °F - 52.0 °F 33% 29.92 in 10.0 mi SSE 4.6 mph - N/A   Clear
1:53 PM 88.0 °F - 51.1 °F 28% 29.91 in 10.0 mi Calm Calm - N/A   Clear
2:53 PM 90.0 °F 87.5 °F 53.1 °F 28% 29.90 in 10.0 mi SSE 5.8 mph - N/A   Clear
3:53 PM 93.9 °F - 46.0 °F 19% 29.88 in 10.0 mi SSE 3.5 mph - N/A   Clear
4:53 PM 93.9 °F 91.4 °F 53.1 °F 25% 29.86 in 10.0 mi ESE 3.5 mph - N/A   Clear
5:53 PM 95.0 °F 92.7 °F 54.0 °F 25% 29.85 in 10.0 mi SE 5.8 mph - N/A   Clear
6:53 PM 91.0 °F 90.2 °F 59.0 °F 34% 29.84 in 10.0 mi SSE 6.9 mph - N/A   Clear
7:53 PM 90.0 °F - 48.0 °F 24% 29.85 in 7.0 mi SSW 8.1 mph - N/A   Clear
8:53 PM 84.0 °F 82.9 °F 55.0 °F 37% 29.86 in 10.0 mi Calm Calm - N/A   Clear
9:53 PM 82.0 °F - 51.1 °F 34% 29.86 in 10.0 mi Calm Calm - N/A   Clear
10:53 PM 77.0 °F - 52.0 °F 42% 29.88 in 10.0 mi SE 3.5 mph - N/A   Clear
11:53 PM 77.0 °F - 52.0 °F 42% 29.88 in 10.0 mi Calm Calm - N/A   Clear